Location: Izdebno
(52.6670°N, 16.2170°E)
Time: 19:09:08
(UTC+01:00)

Transit 2A - Pass Details

Date: 05 February 2023
Orbit: 591 x 964 km, 66.7° (Epoch: 21 March)

Event Time Altitude Azimuth Distance (km) Brightness Sun altitude
Rises 03:13:28 0° 308° (NW) 3,536 - -38.6°
Reaches altitude 10° 03:17:48 10° 279° (W) 2,651 - -38.0°
Maximum altitude 03:19:55 12° 259° (W) 2,535 - -37.7°
Drops below altitude 10° 03:22:03 10° 239° (WSW) 2,684 - -37.4°
Sets 03:26:32 0° 210° (SSW) 3,640 - -36.8°
